South Haven, MI

1:20 PM EDT on May 27, 2017 (GMT -0400)
South Haven

Weather History for KLWA - January, 2012

Change the Weather History Date:

Wednesday, January 18, 2012

  Actual Average (KBEH) Record (KBEH)
Temperature  
Mean Temperature 24 °F -  
Max Temperature 26 °F 30 °F 54 °F (1973)
Min Temperature 21 °F 19 °F -2 °F (1997)
Degree Days  
Heating Degree Days 42    
Moisture  
Dew Point 16 °F    
Average Humidity 69    
Maximum Humidity 80    
Minimum Humidity 54    
Precipitation  
Precipitation 0.00 in - - ()
Sea Level Pressure  
Sea Level Pressure 30.14 in    
Wind  
Wind Speed 10 mph (WSW)    
Max Wind Speed 15 mph    
Max Gust Speed 28 mph    
Visibility 10 miles    
Events Snow    
Averages and records for this station are not official NWS values.
T = Trace of Precipitation, MM = Missing Value Source: NWS Daily Summary

Daily Weather History Graph

Daily Weather History Graph

Search for Another Location

Airport or City:

Trip Planner

Search our weather history database for the weather conditions in past years. The results will help you decide how hot, cold, wet, or windy it might be!

Date:

Astronomy

Jan. 18, 2012 Rise Set
Actual Time 8:10 AM EST 5:40 PM EST
Civil Twilight 7:39 AM EST 6:11 PM EST
Nautical Twilight 7:04 AM EST 6:46 PM EST
Astronomical Twilight 6:31 AM EST 7:19 PM EST
Moon 3:39 AM EST (1/18) 1:18 PM EST (1/18)
Length of Visible Light 10h 32m
Length of Day
9h 30m
Waning Crescent, 25% of the Moon is Illuminated
Jan 18
Waning Crescent
Jan 23
New
Jan 30
First Quarter
Feb 7
Full
Feb 14
Last Quarter

Hourly Weather History & Observations

Time (EST) Temp. Windchill Dew Point Humidity Pressure Visibility Wind Dir Wind Speed Gust Speed Precip Events Conditions
12:15 AM 26.6 °F 14.7 °F 15.8 °F 64% 30.13 in 10.0 mi NNW 15.0 mph 27.6 mph N/A   Overcast
12:35 AM 26.6 °F 14.7 °F 17.6 °F 69% 30.13 in 7.0 mi NW 15.0 mph 24.2 mph N/A Snow Light Snow
12:54 AM 26.6 °F 14.7 °F 17.6 °F 69% 30.14 in 10.0 mi NNW 15.0 mph 21.9 mph N/A Snow Light Snow
1:15 AM 26.6 °F 15.2 °F 17.6 °F 69% 30.15 in 10.0 mi NW 13.8 mph 20.7 mph N/A   Overcast
1:35 AM 26.6 °F 17.5 °F 17.6 °F 69% 30.16 in 10.0 mi NW 9.2 mph 17.3 mph N/A   Overcast
2:15 AM 26.6 °F 16.8 °F 17.6 °F 69% 30.16 in 10.0 mi NW 10.4 mph 16.1 mph N/A Snow Light Snow
2:34 AM 26.6 °F 17.5 °F 17.6 °F 69% 30.17 in 10.0 mi NW 9.2 mph - N/A   Overcast
2:55 AM 24.8 °F 14.0 °F 17.6 °F 74% 30.17 in 10.0 mi NW 11.5 mph - N/A   Overcast
3:34 AM 24.8 °F 16.1 °F 15.8 °F 69% 30.19 in 10.0 mi NW 8.1 mph - N/A   Overcast
3:55 AM 24.8 °F 17.9 °F 15.8 °F 69% 30.19 in 10.0 mi NW 5.8 mph - N/A   Overcast
4:15 AM 24.8 °F 14.0 °F 17.6 °F 74% 30.19 in 10.0 mi NW 11.5 mph 16.1 mph N/A Snow Light Snow
4:35 AM 24.8 °F 19.1 °F 14.0 °F 64% 30.19 in 10.0 mi NW 4.6 mph - N/A   Overcast
4:55 AM 24.8 °F 15.3 °F 15.8 °F 69% 30.20 in 10.0 mi NW 9.2 mph - N/A   Overcast
5:14 AM 24.8 °F 16.9 °F 15.8 °F 69% 30.20 in 10.0 mi WNW 6.9 mph - N/A   Overcast
5:35 AM 24.8 °F 16.9 °F 15.8 °F 69% 30.20 in 10.0 mi West 6.9 mph - N/A   Overcast
5:55 AM 24.8 °F 16.9 °F 15.8 °F 69% 30.20 in 10.0 mi WNW 6.9 mph - N/A   Overcast
6:15 AM 24.8 °F 16.9 °F 17.6 °F 74% 30.21 in 10.0 mi WNW 6.9 mph - N/A   Overcast
6:35 AM 24.8 °F 17.9 °F 17.6 °F 74% 30.21 in 10.0 mi WNW 5.8 mph - N/A   Overcast
7:15 AM 23.0 °F 14.7 °F 14.0 °F 68% 30.22 in 10.0 mi WNW 6.9 mph - N/A   Overcast
7:34 AM 23.0 °F 15.8 °F 15.8 °F 74% 30.22 in 10.0 mi West 5.8 mph - N/A   Overcast
7:55 AM 24.8 °F 17.9 °F 15.8 °F 69% 30.22 in 10.0 mi West 5.8 mph - N/A   Overcast
8:15 AM 23.0 °F 15.8 °F 15.8 °F 74% 30.22 in 10.0 mi West 5.8 mph - N/A   Overcast
8:35 AM 24.8 °F 20.5 °F 15.8 °F 69% 30.22 in 10.0 mi West 3.5 mph - N/A   Overcast
8:55 AM 24.8 °F 17.9 °F 15.8 °F 69% 30.23 in 10.0 mi West 5.8 mph - N/A   Overcast
9:14 AM 24.8 °F 17.9 °F 14.0 °F 64% 30.24 in 10.0 mi West 5.8 mph - N/A Snow Light Snow
9:35 AM 24.8 °F 15.3 °F 15.8 °F 69% 30.25 in 10.0 mi WSW 9.2 mph - N/A Snow Light Snow
9:55 AM 24.8 °F 19.1 °F 15.8 °F 69% 30.24 in 10.0 mi WSW 4.6 mph - N/A   Overcast
10:14 AM 23.0 °F 13.9 °F 17.6 °F 80% 30.24 in 10.0 mi SW 8.1 mph - N/A Snow Light Snow
10:35 AM 24.8 °F 17.9 °F 15.8 °F 69% 30.24 in 10.0 mi WSW 5.8 mph - N/A Snow Light Snow
10:54 AM 26.6 °F 19.1 °F 15.8 °F 64% 30.24 in 10.0 mi SW 6.9 mph - N/A   Overcast
11:15 AM 26.6 °F 17.5 °F 15.8 °F 64% 30.24 in 10.0 mi SW 9.2 mph - N/A   Overcast
11:35 AM 26.6 °F 17.5 °F 15.8 °F 64% 30.23 in 10.0 mi SW 9.2 mph - N/A   Overcast
11:55 AM 24.8 °F 14.0 °F 15.8 °F 69% 30.22 in 10.0 mi SSW 11.5 mph - N/A   Overcast
12:14 PM 26.6 °F 18.2 °F 15.8 °F 64% 30.21 in 10.0 mi SW 8.1 mph - N/A   Overcast
12:35 PM 26.6 °F 18.2 °F 15.8 °F 64% 30.20 in 10.0 mi SW 8.1 mph 17.3 mph N/A   Overcast
12:55 PM 24.8 °F 14.6 °F 15.8 °F 69% 30.19 in 10.0 mi WSW 10.4 mph 16.1 mph N/A   Overcast
1:14 PM 24.8 °F 13.4 °F 17.6 °F 74% 30.17 in 10.0 mi SW 12.7 mph - N/A   Overcast
1:35 PM 23.0 °F 11.1 °F 17.6 °F 80% 30.16 in 10.0 mi SSW 12.7 mph - N/A   Overcast
1:55 PM 24.8 °F 14.6 °F 17.6 °F 74% 30.15 in 10.0 mi SW 10.4 mph 16.1 mph N/A   Overcast
2:15 PM 26.6 °F 21.2 °F 15.8 °F 64% 30.14 in 10.0 mi SSW 4.6 mph - N/A   Mostly Cloudy
2:35 PM 26.6 °F 20.0 °F 14.0 °F 59% 30.12 in 10.0 mi SSW 5.8 mph - N/A   Scattered Clouds
3:15 PM 26.6 °F 16.8 °F 12.2 °F 55% 30.10 in 10.0 mi South 10.4 mph - N/A   Clear
3:35 PM 26.6 °F 18.2 °F 14.0 °F 59% 30.11 in 10.0 mi South 8.1 mph - N/A   Clear
3:55 PM 24.8 °F 14.6 °F 10.4 °F 54% 30.11 in 10.0 mi South 10.4 mph - N/A   Clear
4:15 PM 24.8 °F 14.6 °F 12.2 °F 59% 30.10 in 10.0 mi South 10.4 mph - N/A   Clear
4:35 PM 24.8 °F 15.3 °F 12.2 °F 59% 30.10 in 10.0 mi South 9.2 mph - N/A   Clear
4:54 PM 23.0 °F 14.7 °F 12.2 °F 63% 30.10 in 10.0 mi South 6.9 mph - N/A   Clear
5:15 PM 23.0 °F 13.1 °F 12.2 °F 63% 30.09 in 10.0 mi South 9.2 mph - N/A   Clear
5:35 PM 23.0 °F 14.7 °F 14.0 °F 68% 30.07 in 10.0 mi South 6.9 mph - N/A   Clear
5:55 PM 23.0 °F 14.7 °F 14.0 °F 68% 30.06 in 10.0 mi South 6.9 mph - N/A   Clear
6:15 PM 23.0 °F 12.4 °F 14.0 °F 68% 30.05 in 10.0 mi South 10.4 mph - N/A   Clear
6:34 PM 21.2 °F 10.9 °F 14.0 °F 74% 30.04 in 10.0 mi South 9.2 mph 16.1 mph N/A   Clear
7:15 PM 21.2 °F 12.6 °F 14.0 °F 74% 30.02 in 10.0 mi SSE 6.9 mph - N/A   Overcast
7:35 PM 21.2 °F 9.5 °F 15.8 °F 80% 30.02 in 10.0 mi SSE 11.5 mph - N/A   Overcast
7:55 PM 21.2 °F 10.9 °F 15.8 °F 80% 30.00 in 10.0 mi SSE 9.2 mph 17.3 mph N/A   Overcast
8:15 PM 23.0 °F 10.6 °F 15.8 °F 74% 30.00 in 10.0 mi South 13.8 mph 18.4 mph N/A   Mostly Cloudy
8:35 PM 23.0 °F 12.4 °F 15.8 °F 74% 29.99 in 10.0 mi South 10.4 mph - N/A   Mostly Cloudy
8:54 PM 23.0 °F 12.4 °F 17.6 °F 80% 29.98 in 10.0 mi South 10.4 mph 16.1 mph N/A   Overcast
9:15 PM 23.0 °F 12.4 °F 17.6 °F 80% 29.96 in 10.0 mi South 10.4 mph 19.6 mph N/A   Overcast
9:35 PM 23.0 °F 11.7 °F 17.6 °F 80% 29.94 in 10.0 mi South 11.5 mph 18.4 mph N/A   Scattered Clouds
9:54 PM 23.0 °F 12.4 °F 17.6 °F 80% 29.94 in 10.0 mi South 10.4 mph 20.7 mph N/A   Mostly Cloudy
10:15 PM 23.0 °F 12.4 °F 17.6 °F 80% 29.91 in 10.0 mi South 10.4 mph 19.6 mph N/A   Scattered Clouds
10:34 PM 23.0 °F 11.7 °F 17.6 °F 80% 29.90 in 10.0 mi South 11.5 mph 20.7 mph N/A   Clear
10:55 PM 23.0 °F 11.7 °F 17.6 °F 80% 29.92 in 10.0 mi South 11.5 mph 20.7 mph N/A   Scattered Clouds
11:15 PM 23.0 °F 12.4 °F 17.6 °F 80% 29.91 in 10.0 mi South 10.4 mph - N/A   Mostly Cloudy
11:34 PM 23.0 °F 13.9 °F 17.6 °F 80% 29.91 in 10.0 mi South 8.1 mph 17.3 mph N/A   Scattered Clouds